This is the latest recevied weather packets stored in our database for station/object K1BWE-1. If no packets are shown the sender has not sent any weather packets the latest 10 day(s).
| Time | Temp. | Humidity | Pressure | Rain* | Wind** | Luminosity | Snow |
|---|---|---|---|---|---|---|---|
| 1777787087 | 22.78° C | 31% | 1014.8 hPa | 0 mm | - | 0 W/m² | - |
| 1777786785 | 22.78° C | 32% | 1014.5 hPa | 0 mm | - | 0 W/m² | - |
| 1777786483 | 23.33° C | 31% | 1014.7 hPa | 0 mm | - | 0 W/m² | - |
| 1777786179 | 23.89° C | 30% | 1014.7 hPa | 0 mm | - | 0 W/m² | - |
| 1777785877 | 24.44° C | 30% | 1014.7 hPa | 0 mm | - | 0 W/m² | - |
| 1777785573 | 24.44° C | 29% | 1014.8 hPa | 0 mm | - | 0 W/m² | - |
| 1777785269 | 24.44° C | 29% | 1014.9 hPa | 0 mm | - | 0 W/m² | - |
| 1777784966 | 24.44° C | 29% | 1014.9 hPa | 0 mm | - | 0 W/m² | - |
| 1777784662 | 24.44° C | 29% | 1014.9 hPa | 0 mm | - | 0 W/m² | - |
| 1777784360 | 24.44° C | 29% | 1014.7 hPa | 0 mm | - | 0 W/m² | - |
| 1777784057 | 24.44° C | 29% | 1014.7 hPa | 0 mm | - | 0 W/m² | - |
| 1777783754 | 24.44° C | 29% | 1014.7 hPa | 0 mm | - | 0 W/m² | - |
| 1777783451 | 25° C | 28% | 1014.3 hPa | 0 mm | - | 0 W/m² | - |
| 1777783148 | 25° C | 28% | 1014.8 hPa | 0 mm | - | 0 W/m² | - |
| 1777782845 | 25° C | 28% | 1014.4 hPa | 0 mm | - | 0 W/m² | - |
| 1777782541 | 25° C | 28% | 1014.3 hPa | 0 mm | - | 0 W/m² | - |
| 1777782238 | 25° C | 28% | 1014.4 hPa | 0 mm | - | 0 W/m² | - |
| 1777781934 | 25° C | 28% | 1014.1 hPa | 0 mm | - | 0 W/m² | - |
| 1777781631 | 25° C | 27% | 1014.1 hPa | 0 mm | - | 0 W/m² | - |
| 1777781329 | 25° C | 28% | 1014.1 hPa | 0 mm | - | 0 W/m² | - |
| 1777781026 | 24.44° C | 28% | 1014 hPa | 0 mm | - | 0 W/m² | - |
| 1777780723 | 24.44° C | 28% | 1014 hPa | 0 mm | - | 0 W/m² | - |
| 1777780420 | 25° C | 28% | 1013.9 hPa | 0 mm | - | 0 W/m² | - |
| 1777780117 | 25° C | 27% | 1013.9 hPa | 0 mm | - | 0 W/m² | - |
| 1777779815 | 25° C | 28% | 1014 hPa | 0 mm | - | 0 W/m² | - |
* Rain latest hour (hover to see other rain measurements)
** Current wind speed in m/s (hover to see current wind gust speed)